User: anonymous   Login
Location: Unspecified
(0.0000°N, 0.0000°E)
Time: 20:48:10
(UTC+00:00)
Language:

SR - Orbit

View from above orbital plane
View from above orbital plane
View from above satellite
View from above satellite

Ground track
Ground track

The orbit data is extracted from the following two-line orbital elements,

1    46U 60007B   20196.37796595 -.00000059  00000-0  11407-4 0  9994
2    46  66.6915 333.7673 0203055 111.9650 250.3173 14.49304325143009
Epoch (UTC): 14 July 2020 09:04:16
Eccentricity: 0.0203055
inclination: 66.6915°
perigee height: 583 km
apogee height: 872 km
right ascension of ascending node: 333.7673°
argument of perigee: 111.9650°
revolutions per day: 14.49304325
mean anomaly at epoch: 250.3173°
orbit number at epoch: 14300

The dashed part of the orbit path shows where the satellite is in the earth's shadow,  

DLR